[[{"header":{"parameterUnit":"m.s-1","parameterCategory":1,"la1":30.2991,"la2":30.254,"lo1":-89.0895,"lo2":-89.0444,"dy":0.0017,"dx":0.0017,"nx":28,"ny":28,"refTime":"2023-09-20T09:00:00:Z","depth":0,"parameterNumber":2,"parameterNumberName":"U-component_of_WINDS"},"data":[0,0,0,0,0,0,0,0,0,0,0,0,0,0,0,0,0,0,0,0,0,0,0,0,0,0,0,0,0,0,0,0,0,0,0,0,0,0,0,0,0,0,0,0,0,0,0,0,0,0,0,0,0,0,0,0,0,0,-3.6683,-3.6683,0,-3.6701,-3.6701,-3.6702,-3.6598,-3.6595,-3.6593,-3.659,-3.6608,-3.6611,-3.6614,0,0,0,0,0,0,0,0,0,0,0,0,0,-3.6559,-3.6562,-3.6683,-3.6683,-3.6684,-3.6701,-3.6701,-3.6702,-3.6599,-3.6595,-3.6592,-3.6588,-3.6607,-3.661,-3.6614,0,0,0,0,0,0,0,0,0,0,0,0,0,-3.6598,-3.6562,-3.6683,-3.6634,-3.663,-3.6701,-3.6701,-3.6702,-3.66,-3.6595,-3.6591,-3.6587,-3.6605,-3.661,-3.6615,-3.6733,0,0,-3.663,-3.6632,0,0,0,0,0,0,0,0,-3.6596,-3.6603,-3.6641,-3.6638,-3.6633,-3.6643,-3.6664,-3.6712,-3.6601,-3.6611,-3.659,-3.6585,-3.6623,-3.6626,-3.6639,-3.6734,-3.6735,-3.663,-3.6633,-3.6635,-3.6636,0,0,0,0,0,0,0,-3.6594,-3.6602,-3.669,-3.6642,-3.6637,-3.6611,-3.6612,-3.6673,-3.6642,-3.661,-3.6603,-3.6606,-3.662,-3.6635,-3.6639,-3.6735,-3.663,-3.6634,-3.6637,-3.6639,-3.6926,-3.693,0,0,0,0,0,0,-3.6598,-3.66,-3.669,-3.6691,-3.6604,-3.6617,-3.6618,-3.6644,-3.6641,-3.6636,-3.661,-3.6601,-3.6629,-3.6633,-3.6639,-3.6775,-3.6635,-3.664,-3.6642,-3.6921,-3.6927,-3.6932,0,0,0,0,0,0,-3.6595,-3.6607,-3.6689,-3.6643,-3.6652,-3.6624,-3.6654,-3.6647,-3.6662,-3.6641,-3.6635,-3.6631,-3.6625,-3.6632,-3.671,-3.6775,-3.6642,-3.6646,-3.6916,-3.6923,-3.693,-3.7051,0,0,0,0,0,0,-3.6592,-3.6606,-3.6651,-3.6645,-3.6655,-3.676,-3.6659,-3.6651,-3.667,-3.6659,-3.6659,-3.6654,-3.6622,-3.6703,-3.6715,-3.6779,-3.665,-3.691,-3.6919,-3.6927,-3.7041,-3.7061,-3.7078,0,0,0,0,0,-3.6588,-3.6685,-3.6654,-3.6665,-3.671,-3.6764,-3.677,-3.6731,-3.6676,-3.672,-3.6707,-3.6654,-3.6767,-3.6712,-3.6724,-3.6791,-3.6905,-3.6916,-3.6927,-3.7032,-3.7057,-3.7078,0,0,0,0,0,0,-3.6699,-3.6683,-3.6649,-3.6747,-3.6758,-3.6747,-3.6801,-3.6759,-3.6786,-3.6774,-3.6725,-3.6726,-3.6812,-3.6809,-3.6749,-3.6904,-3.6826,-3.684,-3.6902,-3.6926,-3.6944,-3.6942,-3.6654,0,0,0,0,0,-3.6735,-3.678,-3.6764,-3.6852,-3.6859,-3.683,-3.6852,-3.6821,-3.6831,-3.6835,-3.6827,-3.6838,-3.6875,-3.6901,-3.6934,-3.7041,-3.7038,-3.7092,-3.7111,-3.7127,-3.7138,-3.7193,-3.7216,-3.6967,-3.6967,-3.6967,0,0,-3.6809,-3.6806,-3.6838,-3.6874,-3.6879,-3.6926,-3.6834,-3.6889,-3.6923,-3.6843,-3.6915,-3.691,-3.6919,-3.7011,-3.7052,-3.7012,-3.7207,-3.714,-3.7153,-3.7156,-3.7206,-3.723,-3.7251,-3.6974,-3.6973,-3.6972,0,0,-3.6968,-3.6972,-3.7044,-3.7051,-3.706,-3.7039,-3.7057,-3.7053,-3.7046,-3.7119,-3.7059,-3.7099,-3.7166,-3.7174,-3.7186,-3.7349,-3.7301,-3.7362,-3.7459,-3.7513,-3.7533,-3.755,-3.7606,-3.7627,-3.7374,-3.7374,-3.7374,0,-3.7059,-3.7129,-3.7087,-3.7145,-3.7162,-3.7092,-3.7165,-3.7173,-3.7193,-3.7206,-3.7162,-3.7242,-3.7243,-3.7336,-3.7376,-3.7389,-3.7407,-3.736,-3.7533,-3.755,-3.7565,-3.7618,-3.764,-3.7381,-3.7381,-3.738,-3.7379,0,-3.7239,-3.7288,-3.7346,-3.7366,-3.739,-3.7455,-3.7423,-3.7452,-3.742,-3.7404,-3.7478,-3.7478,-3.7509,-3.7529,-3.7498,-3.7617,-3.7592,-3.7542,-3.7462,-3.7597,-3.7646,-3.7666,-3.7392,-3.7389,-3.7387,-3.7385,0,0,-3.7467,-3.7464,-3.7485,-3.7493,-3.7497,-3.7534,-3.7596,-3.7627,-3.7652,-3.7668,-3.7718,-3.7776,-3.7728,-3.7743,-3.7713,-3.7761,-3.7888,-3.7704,-3.7703,-3.7736,-3.8016,-3.8053,-3.8077,-3.7857,-3.7861,-3.7864,-3.8015,0,-3.7621,-3.7726,-3.7691,-3.7797,-3.7841,-3.7776,-3.7829,-3.7838,-3.7826,-3.7861,-3.7847,-3.7887,-3.7824,-3.7832,-3.7876,-3.7863,-3.7943,-3.7852,-3.7901,-3.7903,-3.7898,-3.8103,-3.8142,-3.8284,-3.8034,-3.8037,-3.804,0,-3.7814,-3.7838,-3.7949,-3.7945,-3.7962,-3.8011,-3.8035,-3.8071,-3.8079,-3.8066,-3.8083,-3.8043,-3.8102,-3.8024,-3.8105,-3.8044,-3.8063,-3.8059,-3.8064,-3.8065,-3.7978,-3.8107,-3.8329,-3.835,-3.807,-3.8067,-3.8065,0,-3.7967,-3.8027,-3.81,-3.8109,-3.8107,-3.8142,-3.8143,-3.8147,-3.8167,-3.8189,-3.8202,-3.8231,-3.8246,-3.827,-3.8238,-3.8184,-3.8323,-3.8243,-3.8313,-3.8314,-3.8343,-3.8341,-3.8569,-3.836,-3.8359,-3.8359,-3.8358,0,-3.8141,-3.8211,-3.8168,-3.8213,-3.829,-3.8248,-3.8325,-3.8318,-3.8322,-3.8364,-3.8311,-3.8351,-3.8308,-3.8345,-3.8321,-3.839,-3.8398,-3.8389,-3.8381,-3.8392,-3.8393,-3.8402,-3.839,-3.8364,-3.8363,-3.8362,-3.8361,0,-3.8324,-3.8298,-3.8373,-3.8365,-3.8365,-3.8421,-3.8414,-3.8455,-3.8439,-3.8493,-3.8503,-3.8478,-3.8519,-3.849,-3.853,-3.8514,-3.8605,-3.8585,-3.8602,-3.8596,-3.8667,-3.866,-3.8906,-3.8935,-3.871,-3.8712,-3.8714,0,-3.8435,-3.8488,-3.8485,-3.8509,-3.8513,-3.8554,-3.8574,-3.8536,-3.8559,-3.8572,-3.8611,-3.8647,-3.8673,-3.8741,-3.8726,-3.8756,-3.8735,-3.8819,-3.8739,-3.8748,-3.8733,-3.873,-3.8734,-3.8835,-3.8837,-3.884,-3.8841,0,-3.8636,-3.862,-3.8652,-3.8679,-3.8705,-3.8725,-3.874,-3.8763,-3.8724,-3.8754,-3.8794,-3.8814,-3.8855,-3.8891,-3.8916,-3.8916,-3.8872,-3.8867,-3.8884,-3.8895,-3.8902,-3.8897,-3.8644,-3.8861,-3.8859,-3.8858,-3.8857,-3.8856,-3.8785,-3.8827,-3.8832,-3.8869,-3.8876,-3.8892,-3.8929,-3.8918,-3.8951,-3.8981,-3.8957,-3.9005,-3.9011,-3.904,-3.9046,-3.9082,-3.9047,-3.9073,-3.9079,-3.9086,-3.9095,-3.8899,-3.9087,-3.9086,-3.9086,-3.9085,-3.9085,0,-3.8981,-3.898,-3.9015,-3.9037,-3.9066,-3.9023,-3.9038,-3.9064,-3.9107,-3.9117,-3.9144,-3.919,-3.9224,-3.9212,-3.9243,-3.9274,-3.9255,-3.9283,-3.9279,-3.928,-3.9125,-3.9106,-3.9298,-3.9298,-3.9298,-3.9298,-3.9298,-3.9298,-3.9086,-3.9155,-3.914,-3.9213,-3.9212,-3.9258,-3.927,-3.9284,-3.9291,-3.9344,-3.9373,-3.9365,-3.9365,-3.9395,-3.9425,-3.942,-3.9433,-3.9469,-3.9457,-3.9312,-3.9291,-3.9271,-3.9252,-3.9472,-3.9473,-3.9608,-3.9609,-3.961]},{"header":{"parameterUnit":"m.s-1","parameterCategory":1,"la1":30.2991,"la2":30.254,"lo1":-89.0895,"lo2":-89.0444,"dy":0.0017,"dx":0.0017,"nx":28,"ny":28,"refTime":"2023-09-20T09:00:00:Z","depth":0,"parameterNumber":3,"parameterNumberName":"V-component_of_WINDS"},"data":[0,0,0,0,0,0,0,0,0,0,0,0,0,0,0,0,0,0,0,0,0,0,0,0,0,0,0,0,0,0,0,0,0,0,0,0,0,0,0,0,0,0,0,0,0,0,0,0,0,0,0,0,0,0,0,0,0,0,2.106,2.1059,0,2.095,2.0948,2.0947,2.0878,2.0878,2.0878,2.0877,2.0755,2.0752,2.0749,0,0,0,0,0,0,0,0,0,0,0,0,0,2.1203,2.1201,2.106,2.1059,2.1057,2.095,2.0948,2.0947,2.0878,2.0878,2.0878,2.0877,2.0756,2.0752,2.0749,0,0,0,0,0,0,0,0,0,0,0,0,0,2.1121,2.12,2.106,2.1011,2.1005,2.095,2.0948,2.0946,2.0879,2.0878,2.0878,2.0877,2.0757,2.0752,2.0748,2.0731,0,0,2.0735,2.0733,0,0,0,0,0,0,0,0,2.1126,2.1116,2.1019,2.1014,2.1008,2.0928,2.0954,2.0874,2.0879,2.0926,2.0877,2.0877,2.0812,2.0803,2.0783,2.0725,2.072,2.0734,2.0731,2.073,2.0728,0,0,0,0,0,0,0,2.1132,2.112,2.1016,2.1018,2.1011,2.0991,2.0979,2.0938,2.0873,2.0922,2.0917,2.0905,2.0808,2.0787,2.078,2.0718,2.0734,2.073,2.0728,2.0726,2.0638,2.0639,0,0,0,0,0,0,2.1147,2.1126,2.102,2.1013,2.1067,2.0989,2.0975,2.0954,2.0873,2.0861,2.0906,2.0903,2.0795,2.0785,2.0775,2.0748,2.073,2.0725,2.0723,2.0638,2.0639,2.0639,0,0,0,0,0,0,2.115,2.1138,2.1024,2.1068,2.1052,2.0987,2.0963,2.0952,2.0931,2.0861,2.0848,2.0897,2.0794,2.0781,2.0743,2.0743,2.0723,2.0719,2.0638,2.0638,2.0639,2.0696,0,0,0,0,0,0,2.1154,2.114,2.1135,2.1068,2.105,2.0997,2.0963,2.095,2.0924,2.0919,2.0849,2.0837,2.0793,2.075,2.0738,2.0737,2.0716,2.0637,2.0638,2.0639,2.0694,2.0698,2.0702,0,0,0,0,0,2.116,2.1153,2.1135,2.1122,2.1043,2.0997,2.0986,2.0938,2.0925,2.0918,2.0873,2.0839,2.0746,2.0746,2.0733,2.073,2.0637,2.0638,2.0639,2.0692,2.0697,2.0702,0,0,0,0,0,0,2.1218,2.1144,2.1122,2.1095,2.1053,2.0986,2.0975,2.0946,2.0905,2.0901,2.084,2.0825,2.0792,2.0757,2.0759,2.0708,2.0687,2.0685,2.0732,2.0737,2.0741,2.0749,2.0712,0,0,0,0,0,2.1229,2.1201,2.1136,2.1118,2.1098,2.1041,2.1019,2.0986,2.0939,2.092,2.0872,2.0825,2.0784,2.0759,2.0718,2.0689,2.0671,2.068,2.0684,2.0688,2.0686,2.0666,2.0668,2.0641,2.0641,2.0641,0,0,2.1248,2.1204,2.1189,2.1128,2.1092,2.1061,2.1026,2.0995,2.0971,2.0914,2.0875,2.0839,2.0782,2.0748,2.073,2.0717,2.069,2.0689,2.0693,2.0689,2.0667,2.067,2.0672,2.0642,2.0642,2.0642,0,0,2.1268,2.1234,2.1214,2.1179,2.1125,2.1087,2.1083,2.102,2.0994,2.0955,2.0912,2.088,2.0813,2.0773,2.0745,2.075,2.0717,2.0738,2.076,2.0741,2.0743,2.0745,2.0744,2.0745,2.0737,2.0738,2.0738,0,2.1298,2.1253,2.1207,2.1179,2.1152,2.1102,2.108,2.1047,2.0982,2.0963,2.0951,2.0865,2.0823,2.0779,2.078,2.0759,2.075,2.0745,2.0747,2.0748,2.0749,2.0748,2.0748,2.074,2.074,2.074,2.0739,0,2.1292,2.1261,2.1251,2.1193,2.1165,2.114,2.1087,2.1064,2.1033,2.0995,2.0955,2.0904,2.0851,2.0838,2.0807,2.0788,2.0782,2.076,2.0737,2.0755,2.0753,2.0752,2.0744,2.0743,2.0743,2.0742,0,0,2.1344,2.1261,2.1258,2.123,2.1168,2.1142,2.1114,2.1065,2.1045,2.1002,2.0975,2.0919,2.0898,2.0866,2.0829,2.0813,2.0818,2.0792,2.079,2.0797,2.0792,2.0808,2.0808,2.0797,2.0797,2.0797,2.0796,0,2.1353,2.1303,2.126,2.1224,2.1194,2.1147,2.1122,2.1079,2.1043,2.1009,2.0968,2.0929,2.0906,2.0886,2.0868,2.0822,2.0816,2.0821,2.0767,2.0766,2.0781,2.0807,2.0824,2.0826,2.0795,2.0795,2.0795,0,2.1357,2.1318,2.1281,2.1221,2.1206,2.1185,2.1136,2.1106,2.1056,2.1031,2.0995,2.0958,2.0923,2.0906,2.0854,2.0859,2.0834,2.0808,2.0807,2.0798,2.078,2.0797,2.0825,2.0825,2.0793,2.0793,2.0793,0,2.1396,2.1334,2.1303,2.1281,2.1212,2.1197,2.1167,2.1117,2.109,2.1047,2.1028,2.0981,2.0954,2.0916,2.0866,2.0859,2.0819,2.0798,2.0794,2.0795,2.0786,2.0787,2.0808,2.0774,2.0774,2.0774,2.0774,0,2.1409,2.1387,2.132,2.1301,2.1274,2.1224,2.1198,2.1163,2.1119,2.1089,2.1045,2.1018,2.0955,2.0919,2.0879,2.0841,2.083,2.0806,2.0795,2.0809,2.0811,2.079,2.0788,2.0774,2.0774,2.0774,2.0774,0,2.1447,2.1402,2.1365,2.1303,2.1286,2.1269,2.1214,2.1192,2.1155,2.1118,2.1106,2.1046,2.1002,2.0949,2.0886,2.0859,2.0824,2.0809,2.0842,2.0836,2.0834,2.0834,2.0841,2.0838,2.0808,2.0808,2.0809,0,2.1458,2.144,2.1377,2.1356,2.1327,2.1294,2.1267,2.1216,2.119,2.1132,2.1116,2.1069,2.1029,2.0959,2.0908,2.0859,2.0841,2.0847,2.0833,2.0847,2.0839,2.084,2.0837,2.085,2.0851,2.0851,2.0852,0,2.148,2.1459,2.1424,2.1381,2.1351,2.1314,2.1274,2.1259,2.12,2.1171,2.1128,2.1097,2.1034,2.0987,2.0933,2.0897,2.0863,2.0857,2.0853,2.0865,2.0884,2.0872,2.085,2.0856,2.0856,2.0855,2.0855,2.0855,2.1503,2.1485,2.1437,2.1399,2.1365,2.133,2.1306,2.1266,2.123,2.1177,2.1149,2.1105,2.1053,2.0977,2.0943,2.0906,2.0894,2.0889,2.0887,2.0886,2.0889,2.0893,2.0896,2.0895,2.0895,2.0895,2.0895,0,2.1521,2.1489,2.1455,2.1402,2.1372,2.1347,2.1302,2.1277,2.124,2.1197,2.1159,2.1107,2.1061,2.1007,2.0957,2.0937,2.092,2.0926,2.0925,2.0917,2.0904,2.0911,2.094,2.094,2.094,2.094,2.094,2.094,2.1527,2.1494,2.1468,2.1417,2.1383,2.1343,2.1319,2.1285,2.125,2.1196,2.1159,2.1125,2.1076,2.1022,2.0978,2.0963,2.0945,2.0955,2.0934,2.0922,2.0918,2.0915,2.0921,2.0952,2.0952,2.0951,2.0951,2.0951]}]]